• In Belarus
  • List of Countries
  • For 7 days
  • Water Temperature
  • Satellite Maps
  • Weather Map
  • Weather Widgets
  • user-avatar
    Login

    Hourly Weather Tirana

    Today, 22 February, Friday

    Time Temperature Precipitation Wind Pressure Humidity
    00:00 +9°C° 0 mm 2 mps 760 mmHg 69%
    01:00 +10°C° 0 mm 1 mps 759 mmHg 69%
    02:00 +9°C° 0 mm 1 mps 759 mmHg 70%
    03:00 +9°C° 0 mm 1 mps 758 mmHg 71%
    04:00 +9°C° 0 mm 1 mps 758 mmHg 72%
    05:00 +9°C° 0 mm 1 mps 758 mmHg 73%
    06:00 +8°C° 0 mm 1 mps 758 mmHg 73%
    07:00 +7°C° 0 mm 2 mps 757 mmHg 74%
    08:00 +9°C° 0 mm 2 mps 757 mmHg 69%
    09:00 +12°C° 0 mm 1 mps 757 mmHg 63%
    10:00 +13°C° 0 mm 1 mps 756 mmHg 58%
    11:00 +13°C° 0.1 mm 2 mps 756 mmHg 58%
    12:00 +13°C° 0.1 mm 2 mps 755 mmHg 57%
    13:00 +14°C° 0.1 mm 2 mps 755 mmHg 57%
    14:00 +12°C° 0 mm 3 mps 754 mmHg 56%
    15:00 +12°C° 0 mm 3 mps 754 mmHg 54%
    16:00 +12°C° 0 mm 4 mps 754 mmHg 53%
    17:00 +11°C° 0 mm 4 mps 753 mmHg 58%
    18:00 +10°C° 0 mm 3 mps 753 mmHg 62%
    19:00 +9°C° 0 mm 3 mps 753 mmHg 67%
    20:00 +9°C° 0 mm 2 mps 753 mmHg 68%
    21:00 +8°C° 0 mm 2 mps 753 mmHg 69%
    22:00 +9°C° 0 mm 1 mps 753 mmHg 70%
    23:00 +8°C° 0 mm 2 mps 753 mmHg 69%

    Tomorrow, 23 February, Saturday

    Time Temperature Precipitation Wind Pressure Humidity
    00:00 +8°C° 0 mm 3 mps 753 mmHg 68%
    01:00 +7°C° 0 mm 4 mps 753 mmHg 68%
    02:00 +5°C° 0.1 mm 6 mps 753 mmHg 65%
    03:00 +5°C° 0.1 mm 8 mps 752 mmHg 62%
    04:00 +5°C° 0.1 mm 9 mps 752 mmHg 59%
    05:00 +2°C° 0.2 mm 9 mps 752 mmHg 58%
    06:00 +1°C° 0.2 mm 10 mps 752 mmHg 57%
    07:00 0°C° 0.2 mm 10 mps 752 mmHg 56%
    08:00 0°C° 0.2 mm 10 mps 752 mmHg 54%
    09:00 0°C° 0.2 mm 10 mps 753 mmHg 52%
    10:00 0°C° 0.2 mm 9 mps 753 mmHg 50%
    11:00 +1°C° 0.1 mm 9 mps 753 mmHg 49%
    12:00 +2°C° 0.1 mm 9 mps 753 mmHg 47%
    13:00 +2°C° 0.1 mm 9 mps 754 mmHg 46%
    14:00 +2°C° 0 mm 8 mps 754 mmHg 46%
    15:00 +2°C° 0 mm 8 mps 755 mmHg 46%
    16:00 +2°C° 0 mm 8 mps 755 mmHg 46%
    17:00 +1°C° 0 mm 8 mps 756 mmHg 48%
    18:00 +2°C° 0 mm 7 mps 757 mmHg 49%
    19:00 0°C° 0 mm 7 mps 757 mmHg 50%
    20:00 0°C° 0 mm 7 mps 758 mmHg 49%
    21:00 -1°C° 0 mm 7 mps 759 mmHg 49%
    22:00 -1°C° 0 mm 7 mps 759 mmHg 49%
    23:00 -1°C° 0 mm 7 mps 760 mmHg 49%

    Day after tomorrow, 24 February, Sunday

    Time Temperature Precipitation Wind Pressure Humidity
    00:00 -1°C° 0 mm 7 mps 760 mmHg 50%
    01:00 -2°C° 0 mm 7 mps 760 mmHg 50%
    02:00 -2°C° 0 mm 7 mps 760 mmHg 50%
    03:00 -2°C° 0 mm 7 mps 760 mmHg 50%
    04:00 -2°C° 0 mm 8 mps 761 mmHg 50%
    05:00 -2°C° 0 mm 7 mps 761 mmHg 50%
    06:00 -2°C° 0 mm 7 mps 761 mmHg 49%
    07:00 -1°C° 0 mm 7 mps 761 mmHg 49%
    08:00 +2°C° 0 mm 7 mps 761 mmHg 46%
    09:00 +4°C° 0 mm 6 mps 761 mmHg 43%
    10:00 +7°C° 0 mm 6 mps 762 mmHg 41%
    11:00 +9°C° 0 mm 6 mps 762 mmHg 40%
    12:00 +10°C° 0 mm 6 mps 762 mmHg 39%
    13:00 +11°C° 0 mm 6 mps 761 mmHg 39%
    14:00 +10°C° 0 mm 6 mps 761 mmHg 41%
    15:00 +10°C° 0 mm 5 mps 761 mmHg 43%
    16:00 +10°C° 0 mm 5 mps 761 mmHg 45%
    17:00 +8°C° 0 mm 5 mps 762 mmHg 49%
    18:00 +6°C° 0 mm 5 mps 762 mmHg 52%
    19:00 +5°C° 0 mm 5 mps 762 mmHg 56%
    20:00 +3°C° 0 mm 6 mps 763 mmHg 56%
    21:00 +3°C° 0 mm 6 mps 763 mmHg 55%
    22:00 +2°C° 0 mm 6 mps 763 mmHg 55%
    23:00 +2°C° 0 mm 5 mps 764 mmHg 54%

    25 February, Monday

    Time Temperature Precipitation Wind Pressure Humidity
    00:00 +2°C° 0 mm 5 mps 764 mmHg 54%
    01:00 +2°C° 0 mm 5 mps 764 mmHg 53%
    02:00 +2°C° 0 mm 5 mps 763 mmHg 53%
    03:00 +1°C° 0 mm 5 mps 763 mmHg 54%
    04:00 +1°C° 0 mm 5 mps 763 mmHg 54%
    05:00 +1°C° 0 mm 5 mps 763 mmHg 54%
    06:00 +1°C° 0 mm 5 mps 763 mmHg 54%
    07:00 +1°C° 0 mm 6 mps 763 mmHg 53%
    08:00 +3°C° 0 mm 6 mps 763 mmHg 46%
    09:00 +5°C° 0 mm 6 mps 762 mmHg 39%
    10:00 +8°C° 0 mm 6 mps 762 mmHg 32%
    11:00 +9°C° 0 mm 6 mps 762 mmHg 29%
    12:00 +10°C° 0 mm 7 mps 761 mmHg 26%
    13:00 +11°C° 0 mm 7 mps 760 mmHg 23%
    14:00 +11°C° 0 mm 7 mps 760 mmHg 26%
    15:00 +11°C° 0 mm 7 mps 760 mmHg 28%
    16:00 +10°C° 0 mm 7 mps 759 mmHg 30%
    17:00 +9°C° 0 mm 7 mps 759 mmHg 35%
    18:00 +6°C° 0 mm 7 mps 760 mmHg 40%
    19:00 +4°C° 0 mm 8 mps 760 mmHg 45%
    20:00 +3°C° 0 mm 7 mps 760 mmHg 47%
    21:00 +3°C° 0 mm 7 mps 760 mmHg 49%
    22:00 +2°C° 0 mm 6 mps 760 mmHg 50%
    23:00 +2°C° 0 mm 6 mps 760 mmHg 51%

    26 February, Tuesday

    Time Temperature Precipitation Wind Pressure Humidity
    00:00 +2°C° 0 mm 6 mps 759 mmHg 52%
    01:00 +1°C° 0 mm 6 mps 759 mmHg 52%
    02:00 +1°C° 0 mm 6 mps 759 mmHg 53%
    03:00 +1°C° 0 mm 6 mps 759 mmHg 53%
    04:00 +1°C° 0 mm 6 mps 759 mmHg 53%
    05:00 +1°C° 0 mm 6 mps 759 mmHg 53%
    06:00 +1°C° 0 mm 5 mps 759 mmHg 53%
    07:00 +1°C° 0 mm 5 mps 759 mmHg 53%
    08:00 +5°C° 0 mm 5 mps 758 mmHg 46%
    09:00 +7°C° 0 mm 5 mps 758 mmHg 40%
    10:00 +10°C° 0 mm 5 mps 758 mmHg 33%
    11:00 +12°C° 0 mm 4 mps 758 mmHg 30%
    12:00 +14°C° 0 mm 4 mps 758 mmHg 28%
    13:00 +15°C° 0 mm 4 mps 757 mmHg 25%
    14:00 +15°C° 0 mm 4 mps 757 mmHg 28%
    15:00 +15°C° 0 mm 5 mps 757 mmHg 31%
    16:00 +15°C° 0 mm 6 mps 756 mmHg 34%
    17:00 +13°C° 0 mm 6 mps 756 mmHg 41%
    18:00 +10°C° 0 mm 6 mps 757 mmHg 48%
    19:00 +8°C° 0 mm 6 mps 757 mmHg 55%
    20:00 +8°C° 0 mm 5 mps 757 mmHg 55%
    21:00 +7°C° 0 mm 4 mps 757 mmHg 55%
    22:00 +7°C° 0 mm 4 mps 757 mmHg 55%
    23:00 +6°C° 0 mm 4 mps 756 mmHg 55%

    27 February, Wednesday

    Time Temperature Precipitation Wind Pressure Humidity
    00:00 +7°C° 0 mm 3 mps 756 mmHg 56%
    01:00 +7°C° 0 mm 3 mps 756 mmHg 56%
    02:00 +7°C° 0 mm 3 mps 755 mmHg 56%
    03:00 +5°C° 0 mm 3 mps 755 mmHg 56%
    04:00 +5°C° 0 mm 3 mps 754 mmHg 57%
    05:00 +5°C° 0 mm 4 mps 754 mmHg 57%
    06:00 +5°C° 0 mm 5 mps 754 mmHg 58%
    07:00 +4°C° 0 mm 6 mps 754 mmHg 58%
    08:00 +6°C° 0 mm 7 mps 754 mmHg 51%
    09:00 +8°C° 0 mm 9 mps 755 mmHg 44%
    10:00 +11°C° 0 mm 10 mps 755 mmHg 36%
    11:00 +11°C° 0 mm 9 mps 755 mmHg 34%
    12:00 +12°C° 0 mm 9 mps 755 mmHg 32%
    13:00 +13°C° 0 mm 8 mps 755 mmHg 30%
    14:00 +13°C° 0 mm 8 mps 755 mmHg 31%
    15:00 +12°C° 0 mm 8 mps 755 mmHg 32%
    16:00 +12°C° 0 mm 8 mps 755 mmHg 33%
    17:00 +10°C° 0 mm 8 mps 756 mmHg 38%
    18:00 +9°C° 0 mm 8 mps 756 mmHg 43%
    19:00 +6°C° 0 mm 8 mps 757 mmHg 47%
    20:00 +5°C° 0 mm 7 mps 757 mmHg 50%
    21:00 +5°C° 0 mm 7 mps 757 mmHg 53%
    22:00 +4°C° 0 mm 6 mps 758 mmHg 55%
    23:00 +4°C° 0 mm 6 mps 758 mmHg 56%
    Show more